星链-32471 (STARLINK-32471)

导读 | 豆包AI

STARLINK-32471是美国星链互联网卫星星座的组成部分,于2024年11月14日由美国发射升空。星链系统旨在为全球提供高速低延迟互联网覆盖,该卫星入轨后将和其他星链卫星组网,补全星座服务能力,服务全球偏远地区网络接入,也为美国军事通信等领域提供支持。

基本信息
目录编号:
61968
目录名称:
STARLINK-32471
国际标识:
2024-210K
轨道中心:
EARTH
卫星名称:
星链-32471
卫星全名:
星链-32471 (STARLINK-32471)
卫星状态:
在轨 (已飞行486 天)
发射日期:
2024-11-14 UTC
国别 :
美国 (US)
星等 :
--
轨道信息
数据来源 国际轨道数据
星历时间: 2026-03-14T22:21:50+0800
19小时前
查看轨道信息
半长轴: 6861.081km
偏心率: 0.0001288
轨道倾角: 42.997°
近地点辐角 276.962°
升交点赤经 144.937°
平近点角 83.109°
近地点: 482.06km
远地点: 483.828km
周期: 94.265分钟
每日圈数: 15.276153
详细信息
固有亮度:
5
最大亮度:
2.5
卫星平台:
Starlink V1.0
覆盖范围:
全球
运营商:
太空探索技术公司
运营商所在国:
美国
制造商(研发单位):
太空探索技术公司
制造商所在国:
美国
使用方式:
暂无
卫星简介
Starlink 计划是 SpaceX 推出的全球卫星互联网项目,通过发射低轨道卫星,为全球尤其是偏远地区提供高速、低延迟的互联网服务。自 2019 年起,Starlink 已部署数千颗卫星,旨在缩小全球数字鸿沟,推动互联网普及。该项目还为军事、航空等行业提供通信支持,带来广泛经济效益。
2D轨道图
3D轨道图
轨道高度分析图
轨道倾角分析图
轨道综合分析图
查看轨道综合分析图